Weather History for Siemreap, Cambodia

Change the Weather History Date:

Saturday, October 8, 2011

  Actual Average Record
Temperature  
Mean Temperature 80 °F -  
Max Temperature 84 °F - - ()
Min Temperature 77 °F - - ()
Cooling Degree Days 16    
Growing Degree Days 30 (Base 50)    
Moisture  
Dew Point 75 °F    
Average Humidity 82    
Maximum Humidity 89    
Minimum Humidity 70    
Precipitation  
Precipitation 0.00 in - - ()
Sea Level Pressure  
Sea Level Pressure 29.79 in    
Wind  
Wind Speed 1 mph ()    
Max Wind Speed 5 mph    
Max Gust Speed -    
Visibility 6.1 miles    
Events Rain    
T = Trace of Precipitation, MM = Missing Value Source: Averaged Metar Reports

Daily Weather History Graph

Daily Weather History Graph

Search for Another Location

Airport:

Trip Planner

Search our weather history database for the weather conditions in past years. The results will help you decide how hot, cold, wet, or windy it might be!

Date:

Astronomy

Oct. 08, 2011 Rise Set
Actual Time 5:54 AM ICT 5:50 PM ICT
Civil Twilight 5:33 AM ICT 6:11 PM ICT
Nautical Twilight 5:08 AM ICT 6:36 PM ICT
Astronomical Twilight 4:43 AM ICT 7:00 PM ICT
Moon 3:18 PM ICT (10/8) 2:43 AM ICT (10/8)
Length of Visible Light 12h 38m
Length of Day
11h 55m
Waxing Gibbous, 87% of the Moon is Illuminated
Oct 8
Waxing Gibbous
Oct 12
Full
Oct 20
Last Quarter
Oct 27
New
Nov 2
First Quarter

Hourly Weather History & Observations

Time (ICT) Temp. Heat Index Dew Point Humidity Pressure Visibility Wind Dir Wind Speed Gust Speed Precip Events Conditions
7:30 AM 77.0 °F - 73.4 °F 89% 29.83 in 6.2 mi Variable 1.2 mph - N/A   Mostly Cloudy
8:00 AM 78.8 °F - 75.2 °F 89% 29.83 in 6.2 mi Variable 1.2 mph - N/A   Mostly Cloudy
8:30 AM 78.8 °F - 75.2 °F 89% 29.83 in 6.2 mi NNW 3.5 mph - N/A   Mostly Cloudy
9:00 AM 78.8 °F - 73.4 °F 83% 29.86 in 6.2 mi Calm Calm - N/A   Mostly Cloudy
9:30 AM 80.6 °F 85.4 °F 73.4 °F 79% 29.86 in 6.2 mi Variable 2.3 mph - N/A   Mostly Cloudy
10:00 AM 80.6 °F 86.2 °F 75.2 °F 84% 29.86 in 6.2 mi Variable 2.3 mph - N/A   Mostly Cloudy
10:30 AM 82.4 °F 88.2 °F 73.4 °F 74% 29.86 in 6.2 mi Variable 2.3 mph - N/A   Mostly Cloudy
11:00 AM 82.4 °F 88.2 °F 73.4 °F 74% 29.86 in 6.2 mi Variable 1.2 mph - N/A   Mostly Cloudy
11:30 AM 82.4 °F 89.5 °F 75.2 °F 79% 29.83 in 6.2 mi Variable 2.3 mph - N/A   Mostly Cloudy
12:00 PM 82.4 °F 89.5 °F 75.2 °F 79% 29.83 in 6.2 mi Variable 2.3 mph - N/A   Mostly Cloudy
12:30 PM 84.2 °F 90.9 °F 73.4 °F 70% 29.80 in 5.6 mi Variable 2.3 mph - N/A Rain Rain
1:00 PM 84.2 °F 90.9 °F 73.4 °F 70% 29.80 in 5.6 mi Calm Calm - N/A Rain Rain
1:30 PM 82.4 °F 87.2 °F 71.6 °F 70% 29.77 in 6.2 mi Variable 1.2 mph - N/A   Mostly Cloudy
2:00 PM 82.4 °F 87.2 °F 71.6 °F 70% 29.74 in 6.2 mi Calm Calm - N/A Rain Light Rain
2:30 PM 82.4 °F 88.2 °F 73.4 °F 74% 29.74 in 6.2 mi Variable 1.2 mph - N/A Rain Light Rain
3:00 PM 80.6 °F 86.2 °F 75.2 °F 84% 29.71 in 6.2 mi NE 2.3 mph - N/A Rain Light Rain
3:30 PM 80.6 °F 86.2 °F 75.2 °F 84% 29.71 in 6.2 mi Calm Calm - N/A   Mostly Cloudy
4:00 PM 82.4 °F 89.5 °F 75.2 °F 79% 29.71 in 6.2 mi Calm Calm - N/A   Mostly Cloudy
4:30 PM 82.4 °F 89.5 °F 75.2 °F 79% 29.71 in 6.2 mi Calm Calm - N/A   Mostly Cloudy
5:00 PM 82.4 °F 89.5 °F 75.2 °F 79% 29.71 in 6.2 mi Calm Calm - N/A   Mostly Cloudy
5:30 PM 82.4 °F 89.5 °F 75.2 °F 79% 29.74 in 6.2 mi NNE 1.2 mph - N/A   Mostly Cloudy
6:00 PM 80.6 °F 87.1 °F 77.0 °F 89% 29.74 in 6.2 mi Variable 3.5 mph - N/A   Mostly Cloudy
6:30 PM 80.6 °F 87.1 °F 77.0 °F 89% 29.74 in 6.2 mi ENE 4.6 mph - N/A   Mostly Cloudy
7:00 PM 80.6 °F 87.1 °F 77.0 °F 89% 29.74 in 6.2 mi Variable 2.3 mph - N/A   Mostly Cloudy
8:00 PM 80.6 °F 86.2 °F 75.2 °F 84% 29.80 in 6.2 mi Variable 3.5 mph - N/A   Mostly Cloudy
8:30 PM 80.6 °F 86.2 °F 75.2 °F 84% 29.80 in 6.2 mi NW 2.3 mph - N/A   Mostly Cloudy
9:00 PM 80.6 °F 85.4 °F 73.4 °F 79% 29.80 in 6.2 mi Variable 2.3 mph - N/A   Mostly Cloudy
9:30 PM 78.8 °F - 75.2 °F 89% 29.80 in 5.6 mi Calm Calm - N/A   Mostly Cloudy
10:00 PM 78.8 °F - 75.2 °F 89% 29.80 in 5.6 mi Calm Calm - N/A   Mostly Cloudy
10:30 PM 78.8 °F - 75.2 °F 89% 29.83 in 5.6 mi Calm Calm - N/A   Mostly Cloudy
11:00 PM 78.8 °F - 75.2 °F 89% 29.83 in 5.6 mi Calm Calm - N/A   Mostly Cloudy